,,Stat6,,Stat2,,Stat8,,Stat9,,Stat10,,Wind1,,Wind1,
time,status,PA1M_AVG,status,PR1M_SUM,status,RH1M_AVG,status,SR1M_AVG,status,TA1M_AVG,status,W1dAve1m,status,W1sAve1m,
2007-11-24, 00:00:00,VALID,918.14,VALID,0,VALID,99.0008,VALID,-0.0339617,VALID,20.2896,VALID,48,VALID,0,
2007-11-24, 00:01:00,VALID,918.101,VALID,0,VALID,98.8571,VALID,-0.0849042,VALID,20.2804,VALID,48,VALID,0,
2007-11-24, 00:02:00,VALID,918.077,VALID,0,VALID,98.8673,VALID,-0.0849042,VALID,20.2512,VALID,48,VALID,0.206424,
2007-11-24, 00:03:00,VALID,918.045,VALID,0,VALID,98.9982,VALID,-0.0679233,VALID,20.2574,VALID,48,VALID,0.322917,
2007-11-24, 00:04:00,VALID,918.03,VALID,0,VALID,98.9346,VALID,-0.0169808,VALID,20.2639,VALID,40,VALID,0.320694,
2007-11-24, 00:05:00,VALID,918.032,VALID,0,VALID,98.899,VALID,-0.0339617,VALID,20.2509,VALID,31,VALID,0.17066,
2007-11-24, 00:06:00,VALID,918.016,VALID,0,VALID,98.9054,VALID,-0.0339617,VALID,20.2407,VALID,31,VALID,0.0862926,
2007-11-24, 00:07:00,VALID,918.019,VALID,0,VALID,98.9919,VALID,-0.0169808,VALID,20.2474,VALID,31,VALID,0,
2007-11-24, 00:08:00,VALID,917.999,VALID,0,VALID,99.0542,VALID,0,VALID,20.2442,VALID,31,VALID,0,
2007-11-24, 00:09:00,VALID,917.968,VALID,0,VALID,99.1406,VALID,-0.0509425,VALID,20.2442,VALID,31,VALID,0,
2007-11-24, 00:10:00,VALID,917.951,VALID,0,VALID,99.1737,VALID,-0.0679233,VALID,20.2512,VALID,31,VALID,0,
2007-11-24, 00:11:00,VALID,917.924,VALID,0,VALID,99.2119,VALID,0,VALID,20.2409,VALID,31,VALID,0,
2007-11-24, 00:12:00,VALID,917.901,VALID,0,VALID,99.3276,VALID,-0.0509425,VALID,20.2542,VALID,31,VALID,0,
2007-11-24, 00:13:00,VALID,917.876,VALID,0,VALID,99.3657,VALID,-0.0509425,VALID,20.2604,VALID,31,VALID,0,
2007-11-24, 00:14:00,VALID,917.856,VALID,0,VALID,99.311,VALID,-0.0509425,VALID,20.2869,VALID,31,VALID,0,
2007-11-24, 00:15:00,VALID,917.843,VALID,0,VALID,99.161,VALID,-0.0679233,VALID,20.2574,VALID,31,VALID,0,
2007-11-24, 00:16:00,VALID,917.821,VALID,0,VALID,99.0898,VALID,-0.0339617,VALID,20.2477,VALID,31,VALID,0,
2007-11-24, 00:17:00,VALID,917.802,VALID,0,VALID,99.1788,VALID,-0.0509425,VALID,20.2672,VALID,31,VALID,0,
2007-11-24, 00:18:00,VALID,917.801,VALID,0,VALID,99.1101,VALID,-0.0509425,VALID,20.2701,VALID,31,VALID,0,
2007-11-24, 00:19:01,VALID,917.773,VALID,0,VALID,99.2716,VALID,-0.101885,VALID,20.2964,VALID,31,VALID,0,
2007-11-24, 00:20:00,VALID,917.763,VALID,0,VALID,99.2411,VALID,-0.0849042,VALID,20.2996,VALID,31,VALID,0,
2007-11-24, 00:21:00,VALID,917.75,VALID,0,VALID,99.119,VALID,-0.101885,VALID,20.2866,VALID,31,VALID,0,
2007-11-24, 00:22:00,VALID,917.713,VALID,0,VALID,99.0377,VALID,-0.0849042,VALID,20.2906,VALID,31,VALID,0,
2007-11-24, 00:23:01,VALID,917.704,VALID,0,VALID,99.0669,VALID,-0.0509425,VALID,20.2766,VALID,31,VALID,0,
2007-11-24, 00:24:00,VALID,917.701,VALID,0,VALID,98.941,VALID,-0.0339617,VALID,20.2834,VALID,31,VALID,0.00476372,
2007-11-24, 00:25:00,VALID,917.697,VALID,0,VALID,98.9181,VALID,-0.0169808,VALID,20.2704,VALID,31,VALID,0.186166,
2007-11-24, 00:26:00,VALID,917.704,VALID,0,VALID,98.8558,VALID,-0.0509425,VALID,20.2736,VALID,31,VALID,0.203497,
2007-11-24, 00:27:01,VALID,917.685,VALID,0,VALID,98.735,VALID,0.0339617,VALID,20.2726,VALID,31,VALID,0,
2007-11-24, 00:28:00,VALID,917.69,VALID,0,VALID,98.7833,VALID,0,VALID,20.2596,VALID,31,VALID,0.00136719,
2007-11-24, 00:29:00,VALID,917.689,VALID,0,VALID,98.8482,VALID,0.0339617,VALID,20.2691,VALID,33,VALID,0,
2007-11-24, 00:30:00,VALID,917.69,VALID,0,VALID,98.8304,VALID,0.0339617,VALID,20.2764,VALID,39,VALID,0,
2007-11-24, 00:31:01,VALID,917.683,VALID,0,VALID,98.796,VALID,0.0169808,VALID,20.2496,VALID,39,VALID,0,
2007-11-24, 00:32:00,VALID,917.679,VALID,0,VALID,98.8075,VALID,0.0169808,VALID,20.2337,VALID,18,VALID,0.34043,
2007-11-24, 00:33:00,VALID,917.669,VALID,0,VALID,98.5506,VALID,0.0509425,VALID,20.2072,VALID,317,VALID,1.04204,
2007-11-24, 00:34:00,VALID,917.667,VALID,0,VALID,98.7795,VALID,0.0679233,VALID,20.2077,VALID,33,VALID,0.809524,
2007-11-24, 00:35:00,VALID,917.661,VALID,0,VALID,98.7655,VALID,0.0169808,VALID,20.1877,VALID,1,VALID,0.397928,
2007-11-24, 00:36:00,VALID,917.636,VALID,0,VALID,98.7426,VALID,0.0339617,VALID,20.178,VALID,311,VALID,0.199123,
2007-11-24, 00:37:00,VALID,917.617,VALID,0,VALID,98.941,VALID,0.0339617,VALID,20.1912,VALID,347,VALID,0.241642,
2007-11-24, 00:38:01,VALID,917.583,VALID,0,VALID,99.0911,VALID,0.0339617,VALID,20.2175,VALID,38,VALID,0.301525,
2007-11-24, 00:39:01,VALID,917.564,VALID,0,VALID,99.1737,VALID,0.0509425,VALID,20.2302,VALID,64,VALID,0.539634,
2007-11-24, 00:40:00,VALID,917.533,VALID,0,VALID,99.2169,VALID,0.0679233,VALID,20.2594,VALID,68,VALID,0.728659,
2007-11-24, 00:41:00,VALID,917.531,VALID,0,VALID,99.1216,VALID,0.0339617,VALID,20.2467,VALID,57,VALID,0.747332,
2007-11-24, 00:42:01,VALID,917.524,VALID,0,VALID,99.1648,VALID,0,VALID,20.221,VALID,73,VALID,0.871181,
2007-11-24, 00:43:00,VALID,917.505,VALID,0,VALID,99.2462,VALID,0.0339617,VALID,20.2075,VALID,50,VALID,0.972561,
2007-11-24, 00:44:00,VALID,917.504,VALID,0,VALID,99.2182,VALID,0.0339617,VALID,20.1753,VALID,74,VALID,0.896439,
2007-11-24, 00:45:00,VALID,917.511,VALID,0,VALID,99.3823,VALID,0.0679233,VALID,20.1528,VALID,66,VALID,0.78125,
2007-11-24, 00:46:00,VALID,917.532,VALID,0,VALID,99.4166,VALID,0.0169808,VALID,20.1456,VALID,40,VALID,0.67951,
2007-11-24, 00:47:01,VALID,917.536,VALID,0,VALID,99.4408,VALID,0.0509425,VALID,20.1361,VALID,65,VALID,0.763445,
2007-11-24, 00:48:01,VALID,917.537,VALID,0,VALID,99.4942,VALID,0.0509425,VALID,20.1169,VALID,61,VALID,0.812309,
2007-11-24, 00:49:01,VALID,917.534,VALID,0,VALID,99.6073,VALID,0.0679233,VALID,20.0939,VALID,61,VALID,1.14079,
2007-11-24, 00:50:00,VALID,917.542,VALID,0,VALID,99.6798,VALID,0.0509425,VALID,20.0907,VALID,60,VALID,1.1088,
2007-11-24, 00:51:01,VALID,917.545,VALID,0,VALID,99.5641,VALID,0.0509425,VALID,20.0579,VALID,26,VALID,0.594727,
2007-11-24, 00:52:00,VALID,917.563,VALID,0,VALID,99.6735,VALID,0.0509425,VALID,20.032,VALID,62,VALID,0.749151,
2007-11-24, 00:53:01,VALID,917.567,VALID,0,VALID,99.8375,VALID,0.0169808,VALID,20.0387,VALID,58,VALID,0.773264,
2007-11-24, 00:54:00,VALID,917.564,VALID,0,VALID,99.8248,VALID,0.0339617,VALID,20.0223,VALID,56,VALID,0.724564,
2007-11-24, 00:55:01,VALID,917.564,VALID,0,VALID,99.8795,VALID,0.0509425,VALID,20.0258,VALID,64,VALID,0.798177,
2007-11-24, 00:56:01,VALID,917.555,VALID,0,VALID,99.8718,VALID,0.101885,VALID,20.013,VALID,53,VALID,0.71689,
2007-11-24, 00:57:01,VALID,917.542,VALID,0,VALID,99.7358,VALID,-0.0509425,VALID,19.9659,VALID,49,VALID,0.649709,
2007-11-24, 00:58:00,VALID,917.536,VALID,0,VALID,99.9797,VALID,-0.0509425,VALID,19.9427,VALID,29,VALID,0.0788872,
2007-11-24, 00:59:00,VALID,917.54,VALID,0,VALID,100,VALID,-0.0509425,VALID,19.9462,VALID,37,VALID,0.470567,
2007-11-24, 01:00:00,VALID,917.526,VALID,0,VALID,100,VALID,0,VALID,19.9427,VALID,60,VALID,1.22856,
2007-11-24, 01:01:01,VALID,917.507,VALID,0,VALID,100,VALID,-0.0169808,VALID,19.9329,VALID,78,VALID,0.626776,
2007-11-24, 01:02:00,VALID,917.486,VALID,0,VALID,100,VALID,-0.0509425,VALID,19.9364,VALID,63,VALID,0.62064,
2007-11-24, 01:03:00,VALID,917.493,VALID,0,VALID,100,VALID,-0.0169808,VALID,19.9297,VALID,60,VALID,0.70585,
2007-11-24, 01:04:00,VALID,917.49,VALID,0,VALID,100,VALID,-0.0169808,VALID,19.9264,VALID,51,VALID,0.384811,
2007-11-24, 01:05:00,VALID,917.497,VALID,0,VALID,100,VALID,-0.0339617,VALID,19.907,VALID,31,VALID,0.0874256,
2007-11-24, 01:06:00,VALID,917.491,VALID,0,VALID,100,VALID,-0.0509425,VALID,19.894,VALID,6,VALID,0.0317951,
2007-11-24, 01:07:00,VALID,917.482,VALID,0,VALID,100,VALID,-0.0339617,VALID,19.8905,VALID,6,VALID,0.0209604,
2007-11-24, 01:08:01,VALID,917.477,VALID,0,VALID,100,VALID,-0.0169808,VALID,19.8875,VALID,6,VALID,0.00223214,
2007-11-24, 01:09:01,VALID,917.475,VALID,0,VALID,100,VALID,-0.0509425,VALID,19.8813,VALID,343,VALID,0.0822088,
2007-11-24, 01:10:01,VALID,917.495,VALID,0,VALID,100,VALID,-0.0679233,VALID,19.8585,VALID,333,VALID,0.0227273,
2007-11-24, 01:11:01,VALID,917.501,VALID,0,VALID,100,VALID,-0.0509425,VALID,19.8453,VALID,333,VALID,0.0208333,
2007-11-24, 01:12:01,VALID,917.509,VALID,0,VALID,100,VALID,-0.0509425,VALID,19.8453,VALID,3,VALID,0.223133,
2007-11-24, 01:13:01,VALID,917.509,VALID,0,VALID,100,VALID,-0.0849042,VALID,19.8388,VALID,62,VALID,0.796875,
2007-11-24, 01:14:01,VALID,917.467,VALID,0,VALID,100,VALID,-0.0679233,VALID,19.8323,VALID,69,VALID,1.47005,
2007-11-24, 01:15:01,VALID,917.444,VALID,0,VALID,100,VALID,-0.0169808,VALID,19.8321,VALID,66,VALID,1.45924,
2007-11-24, 01:16:01,VALID,917.431,VALID,0,VALID,100,VALID,-0.0849042,VALID,19.8196,VALID,60,VALID,1.53234,
2007-11-24, 01:17:01,VALID,917.401,VALID,0,VALID,100,VALID,-0.0849042,VALID,19.7804,VALID,55,VALID,1.09115,
2007-11-24, 01:18:01,VALID,917.394,VALID,0,VALID,100,VALID,-0.101885,VALID,19.7647,VALID,46,VALID,1.02992,
2007-11-24, 01:19:01,VALID,917.379,VALID,0,VALID,100,VALID,-0.0849042,VALID,19.7258,VALID,55,VALID,0.951172,
2007-11-24, 01:20:00,VALID,917.382,VALID,0,VALID,100,VALID,-0.0849042,VALID,19.7028,VALID,60,VALID,1.17839,
2007-11-24, 01:21:00,VALID,917.391,VALID,0,VALID,100,VALID,-0.118866,VALID,19.7195,VALID,50,VALID,0.940696,
2007-11-24, 01:22:00,VALID,917.401,VALID,0,VALID,100,VALID,-0.0679233,VALID,19.7095,VALID,59,VALID,0.982639,
2007-11-24, 01:23:00,VALID,917.406,VALID,0,VALID,100,VALID,-0.0849042,VALID,19.7225,VALID,56,VALID,1.11433,
2007-11-24, 01:24:00,VALID,917.393,VALID,0,VALID,100,VALID,-0.101885,VALID,19.7063,VALID,44,VALID,1.03652,
2007-11-24, 01:25:00,VALID,917.392,VALID,0,VALID,100,VALID,-0.0679233,VALID,19.6833,VALID,47,VALID,1.26007,
2007-11-24, 01:26:00,VALID,917.387,VALID,0,VALID,100,VALID,-0.101885,VALID,19.6541,VALID,38,VALID,0.942773,
2007-11-24, 01:27:00,VALID,917.392,VALID,0,VALID,100,VALID,-0.0849042,VALID,19.6476,VALID,44,VALID,0.607319,
2007-11-24, 01:28:00,VALID,917.379,VALID,0,VALID,100,VALID,-0.0679233,VALID,19.6609,VALID,44,VALID,0.715199,
2007-11-24, 01:29:00,VALID,917.398,VALID,0,VALID,100,VALID,-0.0509425,VALID,19.6674,VALID,59,VALID,1.0199,
2007-11-24, 01:30:00,VALID,917.403,VALID,0,VALID,100,VALID,-0.0679233,VALID,19.6701,VALID,64,VALID,1.07689,
2007-11-24, 01:31:00,VALID,917.416,VALID,0,VALID,100,VALID,-0.101885,VALID,19.7033,VALID,51,VALID,0.958757,
2007-11-24, 01:32:00,VALID,917.414,VALID,0,VALID,100,VALID,-0.0849042,VALID,19.7125,VALID,64,VALID,1.22828,
2007-11-24, 01:33:00,VALID,917.42,VALID,0,VALID,100,VALID,-0.0849042,VALID,19.7065,VALID,40,VALID,0.929116,
2007-11-24, 01:34:00,VALID,917.415,VALID,0,VALID,100,VALID,-0.0679233,VALID,19.6966,VALID,50,VALID,0.861607,
2007-11-24, 01:35:00,VALID,917.391,VALID,0,VALID,100,VALID,-0.0509425,VALID,19.6798,VALID,54,VALID,1.07758,
2007-11-24, 01:36:00,VALID,917.369,VALID,0,VALID,100,VALID,-0.0849042,VALID,19.6961,VALID,54,VALID,0.755022,
2007-11-24, 01:37:00,VALID,917.342,VALID,0,VALID,100,VALID,-0.101885,VALID,19.7158,VALID,63,VALID,1.08482,
2007-11-24, 01:38:00,VALID,917.32,VALID,0,VALID,100,VALID,-0.0679233,VALID,19.735,VALID,58,VALID,0.772529,
2007-11-24, 01:39:00,VALID,917.293,VALID,0,VALID,100,VALID,-0.0509425,VALID,19.761,VALID,56,VALID,0.675305,
2007-11-24, 01:40:00,VALID,917.287,VALID,0,VALID,100,VALID,-0.0509425,VALID,19.7869,VALID,57,VALID,1.05876,
2007-11-24, 01:41:00,VALID,917.253,VALID,0,VALID,100,VALID,-0.0679233,VALID,19.7904,VALID,52,VALID,0.55191,
2007-11-24, 01:42:00,VALID,917.229,VALID,0,VALID,100,VALID,-0.0339617,VALID,19.761,VALID,57,VALID,0.908249,
2007-11-24, 01:43:00,VALID,917.177,VALID,0,VALID,100,VALID,-0.0339617,VALID,19.7837,VALID,71,VALID,1.1542,
2007-11-24, 01:44:00,VALID,917.132,VALID,0,VALID,100,VALID,-0.0679233,VALID,19.7742,VALID,53,VALID,1.59816,
2007-11-24, 01:45:00,VALID,917.079,VALID,0,VALID,100,VALID,-0.0339617,VALID,19.725,VALID,49,VALID,1.41219,
2007-11-24, 01:46:00,VALID,917.065,VALID,0,VALID,100,VALID,-0.0679233,VALID,19.6766,VALID,55,VALID,1.41542,
2007-11-24, 01:47:00,VALID,917.051,VALID,0,VALID,100,VALID,-0.0679233,VALID,19.6736,VALID,54,VALID,1.90447,
2007-11-24, 01:48:00,VALID,917.04,VALID,0,VALID,100,VALID,-0.0339617,VALID,19.6506,VALID,51,VALID,1.97173,
2007-11-24, 01:49:00,VALID,917.047,VALID,0,VALID,100,VALID,-0.0849042,VALID,19.609,VALID,46,VALID,1.19494,
2007-11-24, 01:50:00,VALID,917.029,VALID,0,VALID,100,VALID,-0.0339617,VALID,19.5955,VALID,48,VALID,1.47028,
2007-11-24, 01:51:00,VALID,917.043,VALID,0,VALID,100,VALID,-0.0849042,VALID,19.5823,VALID,50,VALID,1.34695,
2007-11-24, 01:52:00,VALID,917.037,VALID,0,VALID,100,VALID,-0.0169808,VALID,19.5663,VALID,48,VALID,1.73619,
2007-11-24, 01:53:00,VALID,917.035,VALID,0,VALID,100,VALID,-0.0339617,VALID,19.5371,VALID,59,VALID,1.33825,
2007-11-24, 01:54:00,VALID,917.022,VALID,0,VALID,100,VALID,-0.0509425,VALID,19.5441,VALID,53,VALID,1.38009,
2007-11-24, 01:55:00,VALID,917.004,VALID,0,VALID,100,VALID,-0.0849042,VALID,19.5209,VALID,53,VALID,1.44112,
2007-11-24, 01:56:00,VALID,916.995,VALID,0,VALID,100,VALID,-0.0849042,VALID,19.5049,VALID,41,VALID,1.47354,
2007-11-24, 01:57:00,VALID,916.974,VALID,0,VALID,100,VALID,-0.0679233,VALID,19.4625,VALID,44,VALID,1.36719,
2007-11-24, 01:58:00,VALID,916.937,VALID,0,VALID,100,VALID,-0.0509425,VALID,19.4365,VALID,41,VALID,1.12736,
2007-11-24, 01:59:00,VALID,916.922,VALID,0,VALID,100,VALID,-0.0849042,VALID,19.4235,VALID,53,VALID,1.0506,
2007-11-24, 02:00:00,VALID,916.932,VALID,0,VALID,100,VALID,-0.0679233,VALID,19.424,VALID,50,VALID,0.845954,
2007-11-24, 02:01:00,VALID,916.924,VALID,0,VALID,100,VALID,-0.101885,VALID,19.4435,VALID,45,VALID,0.622743,
2007-11-24, 02:02:00,VALID,916.921,VALID,0,VALID,100,VALID,-0.0679233,VALID,19.4492,VALID,48,VALID,0.537891,
2007-11-24, 02:03:00,VALID,916.907,VALID,0,VALID,100,VALID,-0.0849042,VALID,19.4724,VALID,52,VALID,0.517531,
2007-11-24, 02:04:00,VALID,916.905,VALID,0,VALID,100,VALID,-0.0849042,VALID,19.4662,VALID,55,VALID,0.489984,
2007-11-24, 02:05:00,VALID,916.88,VALID,0,VALID,100,VALID,-0.101885,VALID,19.453,VALID,60,VALID,0.745584,
2007-11-24, 02:06:00,VALID,916.863,VALID,0,VALID,100,VALID,-0.0849042,VALID,19.4435,VALID,57,VALID,0.649528,
2007-11-24, 02:07:00,VALID,916.857,VALID,0,VALID,100,VALID,-0.0849042,VALID,19.43,VALID,58,VALID,0.622456,
2007-11-24, 02:08:00,VALID,916.847,VALID,0,VALID,100,VALID,-0.0849042,VALID,19.4395,VALID,57,VALID,0.491667,
2007-11-24, 02:09:00,VALID,916.823,VALID,0,VALID,100,VALID,-0.0339617,VALID,19.4592,VALID,61,VALID,0.796148,
2007-11-24, 02:10:00,VALID,916.826,VALID,0,VALID,100,VALID,-0.0849042,VALID,19.4303,VALID,51,VALID,0.867773,
2007-11-24, 02:11:00,VALID,916.799,VALID,0,VALID,100,VALID,-0.0339617,VALID,19.4006,VALID,53,VALID,0.902435,
2007-11-24, 02:12:00,VALID,916.792,VALID,0,VALID,100,VALID,0.0849042,VALID,19.3961,VALID,58,VALID,1.2397,
2007-11-24, 02:13:00,VALID,916.786,VALID,0,VALID,100,VALID,0.0339617,VALID,19.3834,VALID,60,VALID,1.4375,
2007-11-24, 02:14:00,VALID,916.785,VALID,0,VALID,100,VALID,-0.0679233,VALID,19.3684,VALID,61,VALID,1.21621,
2007-11-24, 02:15:00,VALID,916.816,VALID,0,VALID,100,VALID,-0.0679233,VALID,19.3716,VALID,72,VALID,0.936942,
2007-11-24, 02:16:00,VALID,916.819,VALID,0,VALID,100,VALID,-0.0509425,VALID,19.3876,VALID,62,VALID,0.770167,
2007-11-24, 02:17:00,VALID,916.861,VALID,0,VALID,100,VALID,-0.0679233,VALID,19.3878,VALID,54,VALID,0.564648,
2007-11-24, 02:18:00,VALID,916.895,VALID,0,VALID,100,VALID,-0.0169808,VALID,19.3976,VALID,63,VALID,0.0881177,
2007-11-24, 02:19:00,VALID,916.913,VALID,0,VALID,100,VALID,-0.0169808,VALID,19.4008,VALID,25,VALID,0.713601,
2007-11-24, 02:20:00,VALID,916.92,VALID,0,VALID,100,VALID,-0.0169808,VALID,19.3806,VALID,24,VALID,0.218164,
2007-11-24, 02:21:00,VALID,916.947,VALID,0,VALID,100,VALID,-0.101885,VALID,19.4105,VALID,24,VALID,0.068859,
2007-11-24, 02:22:00,VALID,916.978,VALID,0,VALID,100,VALID,-0.0339617,VALID,19.4066,VALID,7,VALID,0.589026,
2007-11-24, 02:23:00,VALID,916.992,VALID,0,VALID,100,VALID,-0.0169808,VALID,19.3938,VALID,5,VALID,0.273438,
2007-11-24, 02:24:00,VALID,916.986,VALID,0,VALID,100,VALID,-0.0849042,VALID,19.4073,VALID,5,VALID,0.0314276,
2007-11-24, 02:25:00,VALID,916.987,VALID,0,VALID,100,VALID,-0.0679233,VALID,19.4168,VALID,5,VALID,0.0680259,
2007-11-24, 02:26:00,VALID,916.99,VALID,0,VALID,100,VALID,-0.0339617,VALID,19.43,VALID,12,VALID,0.358648,
2007-11-24, 02:27:00,VALID,916.996,VALID,0,VALID,100,VALID,-0.0509425,VALID,19.4495,VALID,54,VALID,0.683866,
2007-11-24, 02:28:00,VALID,916.991,VALID,0,VALID,100,VALID,-0.0169808,VALID,19.4917,VALID,56,VALID,0.755556,
2007-11-24, 02:29:00,VALID,917.007,VALID,0,VALID,100,VALID,-0.0169808,VALID,19.4882,VALID,56,VALID,0.917578,
2007-11-24, 02:30:00,VALID,917.01,VALID,0,VALID,100,VALID,0,VALID,19.4754,VALID,56,VALID,0.842448,
2007-11-24, 02:31:00,VALID,917.005,VALID,0,VALID,100,VALID,-0.0679233,VALID,19.4525,VALID,55,VALID,0.410714,
2007-11-24, 02:32:00,VALID,917.001,VALID,0,VALID,100,VALID,-0.0339617,VALID,19.4754,VALID,55,VALID,0.0499637,
2007-11-24, 02:33:00,VALID,917.019,VALID,0,VALID,100,VALID,-0.0339617,VALID,19.4884,VALID,55,VALID,0,
2007-11-24, 02:34:00,VALID,917.019,VALID,0,VALID,100,VALID,-0.0509425,VALID,19.5144,VALID,55,VALID,0.000355114,
2007-11-24, 02:35:00,VALID,917.024,VALID,0,VALID,100,VALID,-0.0339617,VALID,19.5241,VALID,55,VALID,0.104106,
2007-11-24, 02:36:00,VALID,917.016,VALID,0,VALID,100,VALID,-0.0339617,VALID,19.5236,VALID,55,VALID,0,
2007-11-24, 02:37:00,VALID,917.016,VALID,0,VALID,100,VALID,-0.0339617,VALID,19.5436,VALID,55,VALID,0.169667,
2007-11-24, 02:38:00,VALID,916.995,VALID,0,VALID,100,VALID,-0.0849042,VALID,19.5533,VALID,57,VALID,0.735283,
2007-11-24, 02:39:00,VALID,916.989,VALID,0,VALID,100,VALID,-0.0849042,VALID,19.5663,VALID,59,VALID,0.768415,
2007-11-24, 02:40:00,VALID,916.995,VALID,0,VALID,100,VALID,-0.0849042,VALID,19.5955,VALID,49,VALID,0.711119,
2007-11-24, 02:41:00,VALID,916.997,VALID,0,VALID,100,VALID,-0.0679233,VALID,19.589,VALID,50,VALID,0.594322,
2007-11-24, 02:42:00,VALID,917.004,VALID,0,VALID,100,VALID,-0.0339617,VALID,19.5695,VALID,52,VALID,0.670473,
2007-11-24, 02:43:00,VALID,916.99,VALID,0,VALID,100,VALID,-0.0679233,VALID,19.5403,VALID,50,VALID,0.637784,
2007-11-24, 02:44:00,VALID,916.986,VALID,0,VALID,100,VALID,-0.0679233,VALID,19.5271,VALID,50,VALID,0.571181,
2007-11-24, 02:45:00,VALID,916.967,VALID,0,VALID,100,VALID,-0.0509425,VALID,19.5303,VALID,48,VALID,0.489211,
2007-11-24, 02:46:00,VALID,916.955,VALID,0,VALID,100,VALID,-0.0849042,VALID,19.5338,VALID,48,VALID,0.286577,
2007-11-24, 02:47:00,VALID,916.943,VALID,0,VALID,100,VALID,-0.0509425,VALID,19.5406,VALID,55,VALID,0.459032,
2007-11-24, 02:48:00,VALID,916.933,VALID,0,VALID,100,VALID,-0.101885,VALID,19.586,VALID,57,VALID,0.526101,
2007-11-24, 02:49:00,VALID,916.931,VALID,0,VALID,100,VALID,-0.0509425,VALID,19.5955,VALID,53,VALID,0.259811,
2007-11-24, 02:50:00,VALID,916.918,VALID,0,VALID,100,VALID,-0.0679233,VALID,19.579,VALID,49,VALID,0.237909,
2007-11-24, 02:51:00,VALID,916.906,VALID,0,VALID,100,VALID,-0.0679233,VALID,19.5793,VALID,49,VALID,0.533854,
2007-11-24, 02:52:00,VALID,916.909,VALID,0,VALID,100,VALID,-0.0509425,VALID,19.5887,VALID,51,VALID,0.818403,
2007-11-24, 02:53:00,VALID,916.914,VALID,0,VALID,100,VALID,-0.0679233,VALID,19.586,VALID,51,VALID,1.05766,
2007-11-24, 02:54:00,VALID,916.922,VALID,0,VALID,100,VALID,-0.0509425,VALID,19.5758,VALID,42,VALID,0.520089,
2007-11-24, 02:55:00,VALID,916.913,VALID,0,VALID,100,VALID,-0.0679233,VALID,19.5758,VALID,38,VALID,0.326126,
2007-11-24, 02:56:00,VALID,916.907,VALID,0,VALID,100,VALID,0,VALID,19.5563,VALID,29,VALID,0.228659,
2007-11-24, 02:57:00,VALID,916.912,VALID,0,VALID,100,VALID,-0.0679233,VALID,19.5565,VALID,29,VALID,0.216654,
2007-11-24, 02:58:00,VALID,916.905,VALID,0,VALID,100,VALID,-0.0339617,VALID,19.566,VALID,29,VALID,0.334985,
2007-11-24, 02:59:00,VALID,916.901,VALID,0,VALID,100,VALID,-0.0679233,VALID,19.5857,VALID,29,VALID,0.0583079,
2007-11-24, 03:00:00,VALID,916.887,VALID,0,VALID,100,VALID,-0.101885,VALID,19.5758,VALID,29,VALID,0.0237926,
2007-11-24, 03:01:00,VALID,916.87,VALID,0,VALID,100,VALID,-0.0509425,VALID,19.579,VALID,29,VALID,0.0775799,
2007-11-24, 03:02:00,VALID,916.87,VALID,0,VALID,100,VALID,-0.0679233,VALID,19.602,VALID,29,VALID,0.1163,
2007-11-24, 03:03:00,VALID,916.879,VALID,0,VALID,100,VALID,-0.0339617,VALID,19.6501,VALID,29,VALID,0.440848,
2007-11-24, 03:04:00,VALID,916.879,VALID,0,VALID,100,VALID,-0.0509425,VALID,19.6439,VALID,29,VALID,0.140053,
2007-11-24, 03:05:00,VALID,916.883,VALID,0,VALID,100,VALID,-0.0169808,VALID,19.6506,VALID,29,VALID,0.102653,
2007-11-24, 03:06:00,VALID,916.898,VALID,0,VALID,100,VALID,-0.0169808,VALID,19.6182,VALID,29,VALID,0.00985863,
2007-11-24, 03:07:00,VALID,916.887,VALID,0,VALID,100,VALID,-0.0509425,VALID,19.6636,VALID,29,VALID,0.338315,
2007-11-24, 03:08:00,VALID,916.876,VALID,0,VALID,100,VALID,-0.0849042,VALID,19.6661,VALID,29,VALID,0.0550987,
2007-11-24, 03:09:00,VALID,916.863,VALID,0,VALID,100,VALID,-0.0849042,VALID,19.6571,VALID,29,VALID,0.12391,
2007-11-24, 03:10:00,VALID,916.85,VALID,0,VALID,100,VALID,-0.0339617,VALID,19.6571,VALID,29,VALID,0.40516,
2007-11-24, 03:11:00,VALID,916.841,VALID,0,VALID,100,VALID,-0.0679233,VALID,19.6309,VALID,17,VALID,0.393973,
2007-11-24, 03:12:00,VALID,916.836,VALID,0,VALID,100,VALID,-0.101885,VALID,19.6149,VALID,10,VALID,0.629724,
2007-11-24, 03:13:00,VALID,916.831,VALID,0,VALID,100,VALID,-0.0849042,VALID,19.6119,VALID,10,VALID,0.554324,
2007-11-24, 03:14:00,VALID,916.819,VALID,0,VALID,100,VALID,-0.0849042,VALID,19.5957,VALID,16,VALID,0.59517,
2007-11-24, 03:15:00,VALID,916.803,VALID,0,VALID,100,VALID,-0.0849042,VALID,19.5668,VALID,51,VALID,0.828497,
2007-11-24, 03:16:00,VALID,916.772,VALID,0,VALID,100,VALID,-0.101885,VALID,19.5343,VALID,53,VALID,0.525112,
2007-11-24, 03:17:00,VALID,916.734,VALID,0,VALID,100,VALID,-0.101885,VALID,19.5079,VALID,53,VALID,0.697218,
2007-11-24, 03:18:00,VALID,916.706,VALID,0,VALID,100,VALID,-0.0509425,VALID,19.4792,VALID,60,VALID,0.971413,
2007-11-24, 03:19:00,VALID,916.68,VALID,0,VALID,100,VALID,-0.101885,VALID,19.463,VALID,56,VALID,1.32422,
2007-11-24, 03:20:00,VALID,916.686,VALID,0,VALID,100,VALID,-0.101885,VALID,19.4275,VALID,50,VALID,1.24554,
2007-11-24, 03:21:00,VALID,916.684,VALID,0,VALID,100,VALID,-0.0679233,VALID,19.3689,VALID,47,VALID,1.52398,
2007-11-24, 03:22:00,VALID,916.688,VALID,0,VALID,100,VALID,-0.101885,VALID,19.3429,VALID,45,VALID,1.25893,
2007-11-24, 03:23:00,VALID,916.693,VALID,0,VALID,100,VALID,-0.101885,VALID,19.31,VALID,48,VALID,1.02471,
2007-11-24, 03:24:00,VALID,916.69,VALID,0,VALID,100,VALID,-0.118866,VALID,19.3142,VALID,51,VALID,0.785342,
2007-11-24, 03:25:00,VALID,916.69,VALID,0,VALID,100,VALID,-0.135847,VALID,19.3262,VALID,50,VALID,1.18121,
2007-11-24, 03:26:00,VALID,916.688,VALID,0,VALID,100,VALID,-0.135847,VALID,19.3561,VALID,45,VALID,1.03216,
2007-11-24, 03:27:00,VALID,916.684,VALID,0,VALID,100,VALID,0,VALID,19.3646,VALID,33,VALID,0.860677,
2007-11-24, 03:28:00,VALID,916.67,VALID,0,VALID,100,VALID,-0.0169808,VALID,19.3676,VALID,42,VALID,0.608665,
2007-11-24, 03:29:00,VALID,916.653,VALID,0,VALID,100,VALID,0,VALID,19.3609,VALID,42,VALID,0.159784,
2007-11-24, 03:30:00,VALID,916.614,VALID,0,VALID,100,VALID,0,VALID,19.3579,VALID,42,VALID,0.222147,
2007-11-24, 03:31:00,VALID,916.586,VALID,0,VALID,100,VALID,0,VALID,19.3674,VALID,43,VALID,0.317769,
2007-11-24, 03:32:00,VALID,916.567,VALID,0,VALID,100,VALID,0,VALID,19.3769,VALID,43,VALID,0,
2007-11-24, 03:33:00,VALID,916.567,VALID,0,VALID,100,VALID,-0.0169808,VALID,19.3736,VALID,43,VALID,0,
2007-11-24, 03:34:00,VALID,916.564,VALID,0,VALID,100,VALID,0,VALID,19.3841,VALID,43,VALID,0,
2007-11-24, 03:35:00,VALID,916.566,VALID,0,VALID,100,VALID,0,VALID,19.3706,VALID,43,VALID,0,
2007-11-24, 03:36:00,VALID,916.57,VALID,0,VALID,100,VALID,-0.0169808,VALID,19.3706,VALID,43,VALID,0,
2007-11-24, 03:37:00,VALID,916.57,VALID,0,VALID,100,VALID,0,VALID,19.3614,VALID,49,VALID,0.0977564,
2007-11-24, 03:38:00,VALID,916.587,VALID,0,VALID,100,VALID,-0.0169808,VALID,19.3519,VALID,72,VALID,0.424006,